Time,TemperatureF,DewpointF,PressureIn,WindDirection,WindDirectionDegrees,WindSpeedMPH,WindSpeedGustMPH,Humidity,HourlyPrecipIn,Conditions,Clouds,dailyrainin,SoftwareType,DateUTC
2013-03-06 00:00:00,30.0,24.0,29.97,NNE,20,1.0,5.0,78,-99.99,,,-99.99,,2013-03-06 05:00:00,
2013-03-06 00:32:00,30.0,24.0,29.97,NNE,20,1.0,5.0,78,-99.99,,,-99.99,,2013-03-06 05:32:00,
2013-03-06 00:42:00,30.0,24.0,29.97,NNE,20,1.0,5.0,78,-99.99,,,-99.99,,2013-03-06 05:42:00,
2013-03-06 00:52:00,30.0,24.0,29.97,NNE,20,1.0,5.0,78,-99.99,,,-99.99,,2013-03-06 05:52:00,
2013-03-06 01:00:00,30.0,24.0,29.97,ENE,70,1.0,4.0,81,-99.99,,,-99.99,,2013-03-06 06:00:00,
2013-03-06 01:22:00,30.0,24.0,29.97,ENE,70,1.0,4.0,81,-99.99,,,-99.99,,2013-03-06 06:22:00,
2013-03-06 01:32:00,30.0,24.0,29.97,ENE,70,1.0,4.0,81,-99.99,,,-99.99,,2013-03-06 06:32:00,
2013-03-06 01:42:00,30.0,24.0,29.97,ENE,70,1.0,4.0,81,-99.99,,,-99.99,,2013-03-06 06:42:00,
2013-03-06 01:52:00,30.0,24.0,29.97,ENE,70,1.0,4.0,81,-99.99,,,-99.99,,2013-03-06 06:52:00,
2013-03-06 02:00:00,33.0,25.0,29.94,East,80,4.0,5.0,72,-99.99,,,-99.99,,2013-03-06 07:00:00,
2013-03-06 02:22:00,33.0,25.0,29.94,East,80,4.0,5.0,72,-99.99,,,-99.99,,2013-03-06 07:22:00,
2013-03-06 02:32:00,33.0,25.0,29.94,East,80,4.0,5.0,72,-99.99,,,-99.99,,2013-03-06 07:32:00,
2013-03-06 02:42:00,33.0,25.0,29.94,East,80,4.0,5.0,72,-99.99,,,-99.99,,2013-03-06 07:42:00,
2013-03-06 02:52:00,33.0,25.0,29.94,East,80,4.0,5.0,72,-99.99,,,-99.99,,2013-03-06 07:52:00,
2013-03-06 03:00:00,33.0,25.0,29.91,ESE,116,1.0,7.0,73,-99.99,,,-99.99,,2013-03-06 08:00:00,
2013-03-06 03:22:00,33.0,25.0,29.91,ESE,116,1.0,7.0,73,-99.99,,,-99.99,,2013-03-06 08:22:00,
2013-03-06 03:32:00,33.0,25.0,29.91,ESE,116,1.0,7.0,73,-99.99,,,-99.99,,2013-03-06 08:32:00,
2013-03-06 03:42:00,33.0,25.0,29.91,ESE,116,1.0,7.0,73,-99.99,,,-99.99,,2013-03-06 08:42:00,
2013-03-06 03:52:00,33.0,25.0,29.91,ESE,116,1.0,7.0,73,-99.99,,,-99.99,,2013-03-06 08:52:00,
2013-03-06 04:00:00,35.0,26.0,29.91,NE,52,5.0,8.0,71,-99.99,,,-99.99,,2013-03-06 09:00:00,
2013-03-06 04:22:00,35.0,26.0,29.91,NE,52,5.0,8.0,71,-99.99,,,-99.99,,2013-03-06 09:22:00,
2013-03-06 04:32:00,35.0,26.0,29.91,NE,52,5.0,8.0,71,-99.99,,,-99.99,,2013-03-06 09:32:00,
2013-03-06 04:42:00,35.0,26.0,29.91,NE,52,5.0,8.0,71,-99.99,,,-99.99,,2013-03-06 09:42:00,
2013-03-06 04:52:00,35.0,26.0,29.91,NE,52,5.0,8.0,71,-99.99,,,-99.99,,2013-03-06 09:52:00,
2013-03-06 05:00:00,37.0,28.0,29.88,NE,52,5.0,19.0,71,-99.99,,,-99.99,,2013-03-06 10:00:00,
2013-03-06 05:22:00,37.0,28.0,29.88,NE,52,5.0,19.0,71,-99.99,,,-99.99,,2013-03-06 10:22:00,
2013-03-06 05:32:00,37.0,28.0,29.88,NE,52,5.0,19.0,71,-99.99,,,-99.99,,2013-03-06 10:32:00,
2013-03-06 05:42:00,37.0,28.0,29.88,NE,52,5.0,19.0,71,-99.99,,,-99.99,,2013-03-06 10:42:00,
2013-03-06 05:52:00,37.0,28.0,29.88,NE,52,5.0,19.0,71,-99.99,,,-99.99,,2013-03-06 10:52:00,
2013-03-06 06:00:00,37.0,29.0,29.88,East,84,8.0,24.0,73,-99.99,,,-99.99,,2013-03-06 11:00:00,
2013-03-06 06:23:00,37.0,29.0,29.88,East,84,8.0,24.0,73,-99.99,,,-99.99,,2013-03-06 11:23:00,
2013-03-06 06:32:00,37.0,29.0,29.88,East,84,8.0,24.0,73,-99.99,,,-99.99,,2013-03-06 11:32:00,
2013-03-06 06:42:00,37.0,29.0,29.88,East,84,8.0,24.0,73,-99.99,,,-99.99,,2013-03-06 11:42:00,
2013-03-06 06:52:00,37.0,29.0,29.88,East,84,8.0,24.0,73,-99.99,,,-99.99,,2013-03-06 11:52:00,
2013-03-06 07:00:00,37.0,29.0,29.88,ENE,76,16.0,26.0,71,-99.99,,,-99.99,,2013-03-06 12:00:00,
2013-03-06 07:33:00,37.0,29.0,29.88,ENE,76,16.0,26.0,71,-99.99,,,-99.99,,2013-03-06 12:33:00,
2013-03-06 07:43:00,37.0,29.0,29.88,ENE,76,16.0,26.0,71,-99.99,,,-99.99,,2013-03-06 12:43:00,
2013-03-06 07:53:00,37.0,29.0,29.88,ENE,76,16.0,26.0,71,-99.99,,,-99.99,,2013-03-06 12:53:00,
2013-03-06 08:00:00,37.0,29.0,29.88,ENE,71,14.0,23.0,73,-99.99,,,-99.99,,2013-03-06 13:00:00,
2013-03-06 08:22:00,37.0,29.0,29.88,ENE,71,14.0,23.0,73,-99.99,,,-99.99,,2013-03-06 13:22:00,
2013-03-06 08:32:00,37.0,29.0,29.88,ENE,71,14.0,23.0,73,-99.99,,,-99.99,,2013-03-06 13:32:00,
2013-03-06 08:42:00,37.0,29.0,29.88,ENE,71,14.0,23.0,73,-99.99,,,-99.99,,2013-03-06 13:42:00,
2013-03-06 08:52:00,37.0,29.0,29.88,ENE,71,14.0,23.0,73,-99.99,,,-99.99,,2013-03-06 13:52:00,
2013-03-06 09:00:00,37.0,29.0,29.88,ENE,59,9.0,26.0,72,-99.99,,,-99.99,,2013-03-06 14:00:00,
2013-03-06 09:32:00,37.0,29.0,29.88,ENE,59,9.0,26.0,72,-99.99,,,-99.99,,2013-03-06 14:32:00,
2013-03-06 09:42:00,37.0,29.0,29.88,ENE,59,9.0,26.0,72,-99.99,,,-99.99,,2013-03-06 14:42:00,
2013-03-06 09:53:00,37.0,29.0,29.88,ENE,59,9.0,26.0,72,-99.99,,,-99.99,,2013-03-06 14:53:00,
2013-03-06 10:00:00,38.0,29.0,29.88,ENE,59,8.0,26.0,69,-99.99,,,-99.99,,2013-03-06 15:00:00,
2013-03-06 10:22:00,38.0,29.0,29.88,ENE,59,8.0,26.0,69,-99.99,,,-99.99,,2013-03-06 15:22:00,
2013-03-06 10:32:00,38.0,29.0,29.88,ENE,59,8.0,26.0,69,-99.99,,,-99.99,,2013-03-06 15:32:00,
2013-03-06 10:42:00,38.0,29.0,29.88,ENE,59,8.0,26.0,69,-99.99,,,-99.99,,2013-03-06 15:42:00,
2013-03-06 10:52:00,38.0,29.0,29.88,ENE,59,8.0,26.0,69,-99.99,,,-99.99,,2013-03-06 15:52:00,
2013-03-06 11:00:00,36.0,33.0,29.88,NE,55,13.0,22.0,89,-99.99,,,-99.99,,2013-03-06 16:00:00,
2013-03-06 11:32:00,36.0,33.0,29.88,NE,55,13.0,22.0,89,-99.99,,,-99.99,,2013-03-06 16:32:00,
2013-03-06 11:42:00,36.0,33.0,29.88,NE,55,13.0,22.0,89,-99.99,,,-99.99,,2013-03-06 16:42:00,
2013-03-06 11:52:00,36.0,33.0,29.88,NE,55,13.0,22.0,89,-99.99,,,-99.99,,2013-03-06 16:52:00,
2013-03-06 12:00:00,35.0,33.0,29.88,NE,54,4.0,17.0,93,-99.99,,,-99.99,,2013-03-06 17:00:00,
2013-03-06 12:22:00,35.0,33.0,29.88,NE,54,4.0,17.0,93,-99.99,,,-99.99,,2013-03-06 17:22:00,
2013-03-06 12:32:00,35.0,33.0,29.88,NE,54,4.0,17.0,93,-99.99,,,-99.99,,2013-03-06 17:32:00,
2013-03-06 12:42:00,35.0,33.0,29.88,NE,54,4.0,17.0,93,-99.99,,,-99.99,,2013-03-06 17:42:00,
2013-03-06 12:53:00,35.0,33.0,29.88,NE,54,4.0,17.0,93,-99.99,,,-99.99,,2013-03-06 17:53:00,
2013-03-06 13:00:00,36.0,34.0,29.88,North,11,4.0,18.0,92,-99.99,,,-99.99,,2013-03-06 18:00:00,
2013-03-06 13:32:00,36.0,34.0,29.88,North,11,4.0,18.0,92,-99.99,,,-99.99,,2013-03-06 18:32:00,
2013-03-06 13:42:00,36.0,34.0,29.88,North,11,4.0,18.0,92,-99.99,,,-99.99,,2013-03-06 18:42:00,
2013-03-06 13:53:00,36.0,34.0,29.88,North,11,4.0,18.0,92,-99.99,,,-99.99,,2013-03-06 18:53:00,
2013-03-06 14:00:00,37.0,35.0,29.88,NE,37,6.0,18.0,92,-99.99,,,-99.99,,2013-03-06 19:00:00,
2013-03-06 14:22:00,37.0,35.0,29.88,NE,37,6.0,18.0,92,-99.99,,,-99.99,,2013-03-06 19:22:00,
2013-03-06 14:33:00,37.0,35.0,29.88,NE,37,6.0,18.0,92,-99.99,,,-99.99,,2013-03-06 19:33:00,
2013-03-06 14:43:00,37.0,35.0,29.88,NE,37,6.0,18.0,92,-99.99,,,-99.99,,2013-03-06 19:43:00,
2013-03-06 14:53:00,37.0,35.0,29.88,NE,37,6.0,18.0,92,-99.99,,,-99.99,,2013-03-06 19:53:00,
2013-03-06 15:00:00,37.0,33.0,29.88,ENE,64,8.0,18.0,85,-99.99,,,-99.99,,2013-03-06 20:00:00,
2013-03-06 15:23:00,37.0,33.0,29.88,ENE,64,8.0,18.0,85,-99.99,,,-99.99,,2013-03-06 20:23:00,
2013-03-06 15:33:00,37.0,33.0,29.88,ENE,64,8.0,18.0,85,-99.99,,,-99.99,,2013-03-06 20:33:00,
2013-03-06 15:43:00,37.0,33.0,29.88,ENE,64,8.0,18.0,85,-99.99,,,-99.99,,2013-03-06 20:43:00,
2013-03-06 15:53:00,37.0,33.0,29.88,ENE,64,8.0,18.0,85,-99.99,,,-99.99,,2013-03-06 20:53:00,
2013-03-06 16:00:00,37.0,31.0,29.91,NNE,33,9.0,21.0,79,-99.99,,,-99.99,,2013-03-06 21:00:00,
2013-03-06 16:22:00,37.0,31.0,29.91,NNE,33,9.0,21.0,79,-99.99,,,-99.99,,2013-03-06 21:22:00,
2013-03-06 16:33:00,37.0,31.0,29.91,NNE,33,9.0,21.0,79,-99.99,,,-99.99,,2013-03-06 21:33:00,
2013-03-06 16:42:00,37.0,31.0,29.91,NNE,33,9.0,21.0,79,-99.99,,,-99.99,,2013-03-06 21:42:00,
2013-03-06 16:52:00,37.0,31.0,29.91,NNE,33,9.0,21.0,79,-99.99,,,-99.99,,2013-03-06 21:52:00,
2013-03-06 17:00:00,38.0,27.0,29.91,North,11,17.0,30.0,63,-99.99,,,-99.99,,2013-03-06 22:00:00,
2013-03-06 17:22:00,38.0,27.0,29.91,North,11,17.0,30.0,63,-99.99,,,-99.99,,2013-03-06 22:22:00,
2013-03-06 17:32:00,38.0,27.0,29.91,North,11,17.0,30.0,63,-99.99,,,-99.99,,2013-03-06 22:32:00,
2013-03-06 17:42:00,38.0,27.0,29.91,North,11,17.0,30.0,63,-99.99,,,-99.99,,2013-03-06 22:42:00,
2013-03-06 17:52:00,38.0,27.0,29.91,North,11,17.0,30.0,63,-99.99,,,-99.99,,2013-03-06 22:52:00,
2013-03-06 18:00:00,38.0,27.0,29.94,NNE,12,8.0,24.0,64,-99.99,,,-99.99,,2013-03-06 23:00:00,
2013-03-06 18:22:00,38.0,27.0,29.94,NNE,12,8.0,24.0,64,-99.99,,,-99.99,,2013-03-06 23:22:00,
2013-03-06 18:32:00,38.0,27.0,29.94,NNE,12,8.0,24.0,64,-99.99,,,-99.99,,2013-03-06 23:32:00,
2013-03-06 18:42:00,38.0,27.0,29.94,NNE,12,8.0,24.0,64,-99.99,,,-99.99,,2013-03-06 23:42:00,
2013-03-06 18:52:00,38.0,27.0,29.94,NNE,12,8.0,24.0,64,-99.99,,,-99.99,,2013-03-06 23:52:00,
2013-03-06 19:00:00,38.0,27.0,29.94,NNE,16,14.0,26.0,64,-99.99,,,-99.99,,2013-03-07 00:00:00,
2013-03-06 19:22:00,38.0,27.0,29.94,NNE,16,14.0,26.0,64,-99.99,,,-99.99,,2013-03-07 00:22:00,
2013-03-06 19:32:00,38.0,27.0,29.94,NNE,16,14.0,26.0,64,-99.99,,,-99.99,,2013-03-07 00:32:00,
2013-03-06 19:42:00,38.0,27.0,29.94,NNE,16,14.0,26.0,64,-99.99,,,-99.99,,2013-03-07 00:42:00,
2013-03-06 19:52:00,38.0,27.0,29.94,NNE,16,14.0,26.0,64,-99.99,,,-99.99,,2013-03-07 00:52:00,
2013-03-06 20:00:00,37.0,25.0,29.94,NE,50,8.0,24.0,62,-99.99,,,-99.99,,2013-03-07 01:00:00,
2013-03-06 20:32:00,37.0,25.0,29.94,NE,50,8.0,24.0,62,-99.99,,,-99.99,,2013-03-07 01:32:00,
2013-03-06 20:42:00,37.0,25.0,29.94,NE,50,8.0,24.0,62,-99.99,,,-99.99,,2013-03-07 01:42:00,
2013-03-06 20:52:00,37.0,25.0,29.94,NE,50,8.0,24.0,62,-99.99,,,-99.99,,2013-03-07 01:52:00,
2013-03-06 21:00:00,37.0,25.0,29.97,North,7,6.0,30.0,63,-99.99,,,-99.99,,2013-03-07 02:00:00,
2013-03-06 21:22:00,37.0,25.0,29.97,North,7,6.0,30.0,63,-99.99,,,-99.99,,2013-03-07 02:22:00,
2013-03-06 21:32:00,37.0,25.0,29.97,North,7,6.0,30.0,63,-99.99,,,-99.99,,2013-03-07 02:32:00,
2013-03-06 21:42:00,37.0,25.0,29.97,North,7,6.0,30.0,63,-99.99,,,-99.99,,2013-03-07 02:42:00,
2013-03-06 21:52:00,37.0,25.0,29.97,North,7,6.0,30.0,63,-99.99,,,-99.99,,2013-03-07 02:52:00,
2013-03-06 22:00:00,36.0,24.0,29.97,North,3,11.0,24.0,62,-99.99,,,-99.99,,2013-03-07 03:00:00,
2013-03-06 22:22:00,36.0,24.0,29.97,North,3,11.0,24.0,62,-99.99,,,-99.99,,2013-03-07 03:22:00,
2013-03-06 22:32:00,36.0,24.0,29.97,North,3,11.0,24.0,62,-99.99,,,-99.99,,2013-03-07 03:32:00,
2013-03-06 22:42:00,36.0,24.0,29.97,North,3,11.0,24.0,62,-99.99,,,-99.99,,2013-03-07 03:42:00,
2013-03-06 22:52:00,36.0,24.0,29.97,North,3,11.0,24.0,62,-99.99,,,-99.99,,2013-03-07 03:52:00,
2013-03-06 23:00:00,36.0,24.0,30.00,NNE,13,7.0,26.0,62,-99.99,,,-99.99,,2013-03-07 04:00:00,
2013-03-06 23:22:00,36.0,24.0,30.00,NNE,13,7.0,26.0,62,-99.99,,,-99.99,,2013-03-07 04:22:00,
2013-03-06 23:32:00,36.0,24.0,30.00,NNE,13,7.0,26.0,62,-99.99,,,-99.99,,2013-03-07 04:32:00,
2013-03-06 23:42:00,36.0,24.0,30.00,NNE,13,7.0,26.0,62,-99.99,,,-99.99,,2013-03-07 04:42:00,
2013-03-06 23:52:00,36.0,24.0,30.00,NNE,13,7.0,26.0,62,-99.99,,,-99.99,,2013-03-07 04:52:00,